Temp
80 83 82 82 81 78 75 74 74 73 75 73 72 72 71 71 70 69 69 68 67 67 66 68 70 73 69 71 69 68 66 65
80 80 82 82 81 77 76 75 73 72 75 73 73 71 70 70 69 68 67 65 64 64 64 65 65 65 65 64 63 64 64 66
78 80 80 81 78 76 76 75 74 73 74 73 72 71 71 70 69 68 67 66 65 65 65 64 64 63 63 62 63 63 63 65
79 78 77 77 79 76 75 75 74 74 75 73 72 72 71 70 69 69 69 68 66 65 65 64 64 63 63 63 63 63 63 63
79 79 78 79 76 78 72 74 74 74 75 74 73 72 71 71 70 70 70 69 67 67 65 65 64 63 63 63 63 62 62 63
85 80 76 75 76 76 73 78 74 74 75 74 74 73 72 72 71 70 71 71 69 66 64 63 64 63 63 62 62 62 61 61
76 78 78 77 76 76 72 71 72 73 74 72 73 71 72 71 69 69 70 70 70 67 65 64 64 63 62 62 61 60 60 60
80 80 78 75 73 74 71 71 70 71 69 68 67 68 67 67 67 67 69 70 70 66 65 64 63 62 62 60 61 60 60 60
78 75 77 75 72 71 69 68 67 70 70 70 69 66 67 64 64 67 67 67 68 66 64 63 63 62 62 60 60 60 59 60
75 75 75 74 74 71 67 68 69 71 73 74 67 69 65 67 66 68 67 67 67 65 64 62 62 61 61 59 59 57 58 59
72 74 73 68 70 68 67 68 69 69 69 69 66 66 65 65 63 63 65 67 67 65 63 62 62 61 60 59 59 58 56 56
72 74 68 67 66 66 67 68 68 69 71 69 71 64 63 63 64 63 64 66 66 66 64 63 62 60 60 59 60 58 57 55
72 72 68 65 66 66 68 68 68 67 67 69 68 64 63 62 62 63 63 63 65 66 64 63 61 60 60 60 60 59 58 56
69 65 66 65 65 67 68 67 66 66 67 66 65 64 62 61 60 61 60 61 62 64 64 62 61 60 60 60 60 60 58 58
62 63 64 64 65 66 66 67 64 65 65 65 64 63 62 62 61 60 60 60 60 61 62 61 60 61 61 61 60 59 59 59
61 62 63 64 65 65 65 66 64 65 64 63 63 64 63 62 61 60 60 60 60 61 62 61 62 63 63 62 60 60 60 59
62 62 63 64 63 64 65 64 63 64 64 63 62 62 62 61 61 61 60 60 62 62 62 62 63 64 63 62 60 61 60 60
62 63 63 63 63 63 63 63 64 63 63 63 64 63 63 62 62 61 61 60 62 62 62 63 63 64 63 62 60 62 62 61
62 63 64 64 65 64 62 63 63 63 63 63 63 63 63 62 61 61 61 61 62 62 63 64 64 62 62 61 62 63 62 62
64 64 65 65 64 63 62 62 64 64 64 63 62 63 62 61 61 61 62 62 62 63 65 66 66 63 62 62 63 63 62 62
MSLP
1002.80 1002.64 1002.59 1002.55 1002.91 1003.61 1004.20 1004.55 1005.14 1005.76 1006.27 1006.77 1007.14 1007.52 1007.76 1008.21 1008.38 1008.70 1008.96 1009.56 1010.14 1010.51 1010.84 1010.89 1011.15 1011.35 1011.56 1011.48 1011.64 1011.82 1011.86 1012.08
1002.76 1002.75 1002.39 1002.08 1001.88 1002.51 1002.91 1003.65 1004.48 1004.91 1005.51 1005.93 1006.47 1007.10 1007.27 1007.86 1007.96 1008.45 1008.93 1009.45 1010.03 1010.46 1010.61 1010.73 1011.00 1011.17 1011.43 1011.51 1011.68 1011.73 1011.81 1011.76
1001.99 1002.07 1002.03 1001.53 1001.74 1001.76 1002.08 1002.71 1003.54 1004.04 1004.60 1005.31 1005.78 1006.20 1006.71 1007.16 1007.52 1008.06 1008.55 1009.09 1009.58 1010.01 1010.33 1010.47 1010.82 1011.15 1011.33 1011.44 1011.57 1011.65 1011.67 1011.65
1001.45 1001.50 1001.49 1001.51 1000.97 1001.03 1001.55 1002.06 1002.51 1003.40 1003.76 1004.19 1004.59 1005.19 1005.89 1006.53 1006.98 1007.47 1007.95 1008.31 1008.92 1009.50 1009.88 1010.29 1010.52 1010.74 1010.90 1011.03 1011.24 1011.34 1011.35 1011.45
1001.03 1000.84 1000.79 1000.55 1000.36 1000.21 1000.58 1001.05 1001.67 1002.35 1002.67 1003.19 1003.94 1004.43 1005.37 1006.03 1006.48 1006.89 1007.28 1007.60 1008.22 1008.81 1009.26 1009.76 1010.11 1010.39 1010.71 1010.88 1010.97 1011.14 1011.31 1011.29
1000.01 999.97 1000.00 999.74 999.75 999.73 999.67 1000.24 1000.91 1001.55 1002.00 1002.42 1003.09 1003.66 1004.49 1005.32 1005.88 1006.37 1006.73 1006.95 1007.49 1008.37 1009.03 1009.49 1009.61 1010.09 1010.35 1010.69 1010.85 1011.04 1011.11 1011.14
999.35 999.04 998.85 998.83 998.69 999.04 999.63 1000.14 1000.36 1000.67 1001.30 1001.90 1002.46 1003.10 1003.93 1004.77 1005.45 1006.01 1006.33 1006.72 1007.29 1007.91 1008.72 1009.15 1009.18 1009.76 1010.21 1010.41 1010.57 1010.77 1010.83 1010.88
998.38 998.11 997.78 998.05 998.34 998.55 999.09 999.50 999.87 1000.49 1001.26 1001.86 1002.57 1003.20 1003.83 1004.40 1005.08 1005.64 1006.07 1006.56 1007.03 1007.86 1008.46 1008.70 1009.06 1009.72 1010.08 1010.34 1010.37 1010.33 1010.35 1010.40
997.54 997.57 997.72 997.98 997.97 998.44 999.04 999.34 999.81 1000.35 1001.03 1001.52 1002.50 1003.00 1003.82 1004.43 1004.79 1005.37 1006.14 1006.35 1006.92 1007.67 1008.17 1008.48 1009.05 1009.39 1009.57 1009.86 1010.11 1010.11 1010.17 1010.29
997.39 997.27 997.25 997.26 997.28 997.61 998.25 998.74 999.13 999.44 1000.13 1000.81 1001.83 1002.76 1003.76 1004.16 1004.86 1005.52 1005.97 1006.50 1006.92 1007.48 1007.75 1008.29 1008.85 1009.19 1009.41 1009.73 1009.81 1009.98 1010.05 1010.15
997.16 996.98 996.73 996.91 997.41 997.66 997.88 998.43 998.99 999.43 999.80 1000.91 1002.15 1003.05 1004.02 1004.74 1005.35 1005.53 1005.81 1006.32 1006.78 1007.23 1007.69 1008.17 1008.55 1008.88 1009.18 1009.19 1009.30 1009.58 1009.82 1009.95
996.65 996.44 996.70 996.78 997.06 997.76 998.15 998.66 999.11 1000.01 999.98 1000.73 1001.82 1003.04 1003.97 1004.42 1004.97 1005.38 1005.97 1006.47 1006.79 1007.04 1007.36 1007.93 1008.27 1008.61 1008.78 1008.85 1008.92 1009.25 1009.54 1009.87
996.13 996.16 996.43 996.75 997.19 997.77 998.40 999.00 999.60 1000.35 1000.37 1001.01 1002.14 1003.23 1003.83 1004.35 1004.95 1005.65 1006.21 1006.55 1006.66 1007.00 1007.43 1007.78 1008.08 1008.31 1008.43 1008.47 1008.69 1008.96 1009.20 1009.42
995.70 995.84 996.32 997.19 997.49 997.89 998.76 999.39 1000.17 1000.48 1000.86 1001.69 1002.40 1003.27 1004.05 1004.67 1005.36 1005.95 1006.43 1006.64 1006.86 1007.10 1007.41 1007.64 1007.82 1008.05 1008.16 1008.17 1008.29 1008.57 1008.81 1009.00
996.30 996.35 996.98 997.61 997.90 998.38 999.24 999.82 1000.53 1000.85 1001.53 1002.26 1002.87 1003.37 1003.99 1004.70 1005.44 1005.98 1006.51 1006.86 1007.08 1007.20 1007.33 1007.49 1007.63 1007.72 1007.81 1007.84 1007.97 1008.25 1008.39 1008.55
996.96 997.37 997.67 998.08 998.48 999.10 999.79 1000.17 1000.85 1001.40 1002.10 1002.74 1003.13 1003.50 1004.28 1005.00 1005.45 1005.91 1006.37 1006.77 1006.82 1006.93 1007.14 1007.27 1007.37 1007.45 1007.45 1007.47 1007.71 1007.88 1007.94 1008.16
997.38 997.85 998.28 998.58 999.17 999.55 1000.04 1000.62 1001.26 1001.84 1002.47 1003.09 1003.53 1004.00 1004.62 1005.23 1005.68 1005.95 1006.28 1006.42 1006.68 1006.86 1006.97 1007.06 1007.12 1007.05 1007.10 1007.18 1007.33 1007.42 1007.57 1007.74
997.60 998.13 998.60 999.07 999.70 1000.04 1000.49 1001.04 1001.60 1002.14 1002.75 1003.30 1003.79 1004.23 1004.62 1005.11 1005.44 1005.88 1006.05 1006.42 1006.56 1006.68 1006.81 1006.87 1006.94 1006.84 1006.89 1006.93 1007.02 1007.16 1007.32 1007.37
997.67 998.27 998.94 999.49 1000.00 1000.42 1001.06 1001.48 1001.93 1002.53 1003.01 1003.47 1003.89 1004.32 1004.67 1005.15 1005.49 1005.82 1006.11 1006.35 1006.40 1006.62 1006.64 1006.77 1006.76 1006.81 1006.73 1006.74 1006.62 1006.87 1007.14 1007.12
997.77 998.56 999.14 999.83 1000.30 1000.83 1001.41 1001.80 1002.25 1002.65 1003.10 1003.56 1003.90 1004.40 1004.81 1005.30 1005.68 1005.86 1006.05 1006.24 1006.34 1006.40 1006.47 1006.50 1006.53 1006.72 1006.66 1006.65 1006.69 1006.79 1007.04 1007.03
Wind_Speed
3 6 6 8 13 12 17 16 15 15 12 8 7 7 7 7 10 9 8 6 5 4 3 3 5 12 4 7 5 4 5 4
8 9 10 8 7 13 17 16 15 15 10 10 10 9 8 8 9 10 7 5 5 4 3 4 4 3 5 4 3 4 5 5
8 11 10 10 8 9 16 16 16 15 16 10 10 11 9 9 9 9 7 6 6 4 4 4 4 4 4 4 5 4 5 6
8 9 10 10 11 8 13 16 17 15 16 15 12 11 10 9 9 9 11 8 7 5 5 5 4 5 4 4 5 5 5 4
11 11 10 12 9 9 14 17 17 18 19 14 11 10 9 9 9 11 13 11 9 9 5 4 4 4 5 4 3 2 3 3
15 12 10 9 9 10 9 10 16 16 16 12 11 10 10 9 8 9 12 12 10 6 5 4 5 5 5 4 4 4 4 4
11 14 11 11 11 10 7 8 13 16 13 9 10 10 9 7 7 7 10 10 9 7 5 5 6 4 4 3 3 4 4 4
17 16 14 10 8 9 5 10 10 10 6 6 4 6 5 6 7 6 9 8 9 6 5 5 5 4 4 3 5 4 4 4
11 8 8 9 9 9 11 10 9 10 9 8 7 6 7 5 5 8 7 5 7 7 4 4 4 5 6 5 3 5 4 3
10 9 9 9 8 9 7 9 13 11 9 7 5 6 3 5 5 8 8 7 7 6 6 5 6 4 4 3 4 1 3 4
10 10 12 6 9 9 9 9 9 8 11 9 6 6 5 3 3 3 5 7 7 7 7 6 5 3 4 3 4 6 3 2
11 12 7 9 7 6 8 10 11 8 11 10 13 5 5 3 4 4 5 6 7 6 6 5 5 4 4 4 4 3 3 3
12 10 8 6 9 9 10 11 9 7 9 11 9 6 3 3 3 8 6 4 5 5 6 5 4 4 4 5 4 4 3 3
8 4 10 10 9 11 11 12 8 8 9 9 9 9 7 5 5 5 4 3 3 4 5 4 4 4 5 4 5 5 5 4
7 11 12 11 12 12 10 12 9 9 10 9 8 8 9 9 7 5 6 3 2 3 4 4 3 5 5 4 3 4 4 4
7 7 9 12 13 10 10 12 10 10 9 8 7 9 6 5 5 4 4 4 3 4 4 4 5 5 5 5 3 4 4 4
11 10 10 11 10 11 11 10 10 10 9 8 7 7 8 7 7 6 4 3 3 5 5 5 4 6 5 5 4 4 4 3
11 11 11 9 9 9 9 9 11 9 9 8 8 8 8 7 6 6 5 4 4 5 4 3 4 4 4 5 4 3 5 3
12 11 10 10 10 9 8 8 9 8 8 7 8 7 8 6 6 5 5 4 4 5 4 4 4 3 3 3 3 3 4 2
13 12 12 12 10 9 8 7 8 8 7 7 7 7 7 7 6 6 5 5 4 5 4 4 4 3 3 3 4 3 5 4
Wind_Direction
288 231 215 219 184 188 190 191 187 185 191 186 192 198 194 203 198 188 175 173 188 197 209 228 214 227 224 221 232 241 223 216
258 238 237 238 224 182 191 190 187 188 185 191 190 197 192 200 192 180 174 170 184 205 197 201 196 201 206 207 219 239 237 229
233 228 247 247 243 182 193 183 188 189 189 188 191 195 197 195 185 184 178 177 181 190 202 184 203 184 209 207 219 225 230 233
253 251 240 242 244 222 191 190 189 183 192 190 192 188 193 187 186 187 184 176 180 180 190 189 198 189 205 200 213 218 231 207
241 242 234 228 235 229 179 188 183 185 193 190 186 184 179 185 186 186 183 179 181 185 179 182 183 188 193 197 184 185 218 223
267 247 232 233 221 206 198 179 179 188 192 187 184 178 174 180 178 179 183 183 176 153 159 176 181 184 184 183 189 215 222 221
252 247 230 230 203 209 191 180 184 188 190 176 178 167 167 167 165 169 178 174 165 160 165 182 174 178 186 193 214 213 219 227
250 245 230 221 219 216 203 189 185 177 151 131 121 133 137 145 160 157 161 166 167 151 175 179 160 159 185 230 223 222 215 214
257 252 243 213 194 182 193 168 169 154 161 151 151 153 146 130 139 139 145 164 161 169 181 169 169 175 197 214 228 219 245 202
256 239 220 211 204 205 172 178 168 168 167 167 118 139 111 142 145 162 173 177 165 170 162 176 181 186 224 217 195 203 247 186
255 243 224 176 193 189 168 162 151 148 126 112 92 83 77 89 73 123 160 159 155 156 166 164 169 178 210 210 199 184 195 207
246 240 212 188 172 135 125 126 125 135 134 121 139 131 142 158 149 126 130 148 155 157 149 154 177 184 196 209 200 186 151 188
255 245 194 176 144 133 124 120 120 134 114 125 131 123 129 134 107 121 132 154 148 149 151 165 185 187 200 202 199 193 186 172
249 172 133 132 123 116 122 124 124 116 110 122 127 137 133 111 108 120 130 124 135 150 151 179 189 188 202 211 211 204 200 197
147 132 131 126 123 120 119 125 119 114 110 112 124 130 126 130 135 135 142 139 186 188 165 188 194 206 211 209 211 203 202 201
115 114 119 122 122 114 119 119 120 114 112 114 107 112 113 120 137 140 151 178 170 161 176 182 207 210 211 199 206 210 195 215
128 116 117 120 115 122 125 118 116 116 118 109 100 106 113 125 131 140 161 157 153 169 175 194 217 218 215 207 209 216 206 203
128 125 126 114 120 121 110 115 121 122 118 116 122 123 118 125 130 134 144 151 155 175 191 208 225 234 201 193 206 210 218 214
135 131 125 124 124 119 121 121 119 122 122 123 125 135 127 131 131 142 161 156 177 190 188 216 212 199 184 174 213 225 190 179
131 131 131 135 130 130 131 126 128 137 141 137 138 128 125 132 146 158 160 165 185 200 208 212 210 169 189 202 228 156 131 122